FENGYUN 1C DEB, 29881

Orbit data source: Space-Track

FENGYUN 1C DEB, 29881 is space debris in SSO originally from a launch on Mon, 10 May 1999 UTC launched from the Taiyaun Space Center, China (TSC). Fengyun 1C debris stems from the Chinese weather satellite Fengyun-1C, which was intentionally destroyed by a Chinese anti-satellite missile in 2007. This event dramatically increased the amount of space debris, with thousands of trackable fragments posing hazards to satellites and human spaceflight. The Fengyun 1C debris cloud has become a focal point in discussions about space sustainability and the need for international regulations to prevent the creation of new debris.

Loading next visibility...
Identifier
29881, 1999-025GB
Orbit
SSO
Country
Flag of CNCN / PRC
Related business
Manufacturer
Unknown
Mission
Spacecraft
Bus & Motor
Unknown
Mass
Unknown
Launch date (UTC)
1999-05-10 (27 years ago)
Launch vehicle
Unknown
Launch site
Taiyaun Space Center, China (TSC)
Object type
Payload
Rocket body
Debris
Shape & HBR
Unknown shape, 1.1 m
Radar Cross Section
Medium (>0.1 m² and <1 m²)

Expand to show TLE details & history
Last TLE update: 8 hours ago

TLE from 8 hours ago
0 FENGYUN 1C DEB
1 29881U 99025GB  26265.22238522  .00001675  00000-0  17128-2 0  9990
2 29881  98.7326 212.2603 0292094  52.4142  54.1688 13.60560531970889
Epoch: 2026-09-22T05:20Z
TLE epoch observation values (Epoch: 2026-09-22T05:20:14.083Z)
Latitude
68.91503°
Longitude
-25.54271°
Altitude
923.036 km
Speed
7.458 km/s
True Right ascension
03h 42m 25s
True Declination
68° 48' 07"
Sunlit
Object was in daylight at epoch
Visualization orbit readout
Latitude
Unknown
Longitude
Unknown
Altitude
Unknown
Speed
Unknown
Apparent Right ascension
Unknown
Apparent Declination
Unknown
Sunlit
N/A
Visualization observer readout
Local Sidereal Time
06:11:29
Azimuth
Unknown
Elevation
Unknown
Doppler factor
Unknown
Orbital elements
Apogee altitude
1,247.305 km
Perigee altitude
814.479 km
Semi-major axis
7,409.029 km
Eccentricity
0.02921
Inclination
98.7326°
RAAN
212.2603°
Arg. of periapsis
52.4142°
True anomaly
56.94062°
Mean anomaly
54.1688°
Eccentric anomaly
55.54884°
Mean motion
3.40331 °/min
Orbital period
105.78 mins
BSTAR
0.0017128
Loading maneuver chart data...
Computing Atmospheric mass density...

Documentation

Showing up to 5 results
|